EW6662 Weather Reports


Display with metric or nautical units.
time (UTC)temp
F
wind
direction
speed
MPH
gust
MPH
rain 1hr
in
rain 24hr
in
rain mn
in
humidity
%
barometer
mb
20260505183042 80 162 3.0 12.0 0.00 0.00 0.00 36 1003.5
20260505181533 80 135 2.0 11.0 0.00 0.00 0.00 37 1003.8
20260505180025 79 77 4.0 12.0 0.00 0.00 0.00 37 1004.2
20260505174522 78 108 5.0 13.0 0.00 0.00 0.00 40 1004.5
20260505173023 77 55 7.0 17.0 0.00 0.00 0.00 39 1004.7
20260505171520 77 103 0.0 6.0 0.00 0.00 0.00 40 1004.8
20260505170018 76 98 3.0 9.0 0.00 0.00 0.00 43 1005.1
20260505164510 76 38 6.0 14.0 0.00 0.01 0.00 41 1005.4
20260505163010 74 110 1.0 8.0 0.00 0.01 0.00 43 1005.6
20260505161507 75 129 3.0 12.0 0.00 0.01 0.00 43 1005.8
20260505153100 74 127 4.0 10.0 0.00 0.01 0.00 42 1006.3
20260505151611 73 113 0.0 9.0 0.00 0.01 0.00 44 1006.5
20260505140142 69 34 0.0 3.0 0.00 0.01 0.00 48 1006.7
20260505124520 61 164 0.0 1.0 0.00 0.01 0.00 59 1007.8
20260505123015 58 200 0.0 0.0 0.00 0.01 0.00 63 1007.6
20260505121514 58 153 0.0 0.0 0.00 0.01 0.00 65 1007.6
20260505120038 58 128 0.0 0.0 0.00 0.01 0.00 63 1007.6
20260505114511 56 148 0.0 0.0 0.00 0.01 0.00 69 1007.8
20260505113005 53 151 0.0 0.0 0.00 0.01 0.00 74 1007.9
20260505111601 49 151 0.0 0.0 0.00 0.01 0.00 82 1007.9
20260505101557 47 150 0.0 0.0 0.00 0.01 0.00 82 1007.9
20260505100057 47 153 0.0 0.0 0.00 0.01 0.00 82 1007.9
20260505094557 47 153 0.0 0.0 0.00 0.01 0.00 81 1007.9
20260505093058 47 153 0.0 0.0 0.00 0.01 0.00 81 1007.7
20260505091556 47 153 0.0 1.0 0.00 0.01 0.00 81 1007.8
20260505090055 46 141 0.0 0.0 0.00 0.01 0.00 81 1007.8
20260505084555 47 139 0.0 1.0 0.00 0.01 0.00 81 1008.0
20260505083055 47 134 0.0 1.0 0.00 0.01 0.00 80 1008.1
20260505081553 47 102 0.0 0.0 0.00 0.01 0.00 80 1008.2
20260505080053 47 146 0.0 0.0 0.00 0.01 0.00 80 1008.2
20260505074559 47 146 0.0 0.0 0.00 0.01 0.00 80 1008.1
20260505073104 47 146 0.0 0.0 0.00 0.01 0.00 80 1008.2
20260505071558 47 146 0.0 0.0 0.00 0.01 0.00 80 1008.2
20260505070052 46 146 0.0 0.0 0.00 0.01 0.00 79 1008.2
20260505064548 47 146 0.0 0.0 0.00 0.01 0.00 78 1008.4
20260505063046 47 146 0.0 0.0 0.00 0.01 0.00 77 1008.3
20260505061552 48 146 0.0 0.0 0.00 0.01 0.00 76 1008.3
20260505060044 48 147 0.0 0.0 0.00 0.01 0.00 76 1008.3
20260505054600 48 152 0.0 1.0 0.00 0.01 0.00 75 1008.3
20260505053052 49 149 0.0 0.0 0.00 0.01 0.00 73 1008.2
20260505051540 49 149 0.0 0.0 0.00 0.01 0.00 73 1008.2
20260505041533 48 152 0.0 0.0 0.00 0.01 0.00 74 1007.6
20260505040030 49 152 0.0 0.0 0.00 0.01 0.00 72 1007.5
20260505034529 50 153 0.0 0.0 0.00 0.01 0.01 73 1007.3
20260505033029 51 153 0.0 0.0 0.00 0.01 0.01 70 1007.2
20260505031540 50 152 0.0 0.0 0.00 0.01 0.01 71 1007.2
20260505030027 49 152 0.0 0.0 0.00 0.01 0.01 74 1007.1
20260505024534 49 152 0.0 0.0 0.00 0.01 0.01 74 1007.3
20260505023029 49 152 0.0 0.0 0.00 0.01 0.01 74 1007.4
20260505021527 49 152 0.0 0.0 0.00 0.01 0.01 74 1007.5
20260505020031 49 153 0.0 0.0 0.00 0.01 0.01 74 1007.5
20260505014528 50 153 0.0 0.0 0.00 0.01 0.01 76 1007.3
20260505013024 50 153 0.0 0.0 0.00 0.01 0.01 75 1007.2
20260505011531 50 153 0.0 0.0 0.00 0.01 0.01 74 1007.0
20260505010021 51 153 0.0 0.0 0.00 0.01 0.01 73 1006.9
20260505004540 51 153 0.0 0.0 0.00 0.01 0.01 72 1006.7
20260505003021 52 153 0.0 0.0 0.00 0.01 0.01 71 1006.4
20260505001521 52 153 0.0 0.0 0.00 0.01 0.01 69 1006.2
20260505000035 53 153 0.0 0.0 0.00 0.01 0.01 68 1006.0
20260504234519 54 153 0.0 0.0 0.00 0.01 0.01 65 1005.7
20260504233019 55 153 0.0 0.0 0.00 0.01 0.01 61 1005.5
20260504231517 56 153 0.0 0.0 0.00 0.01 0.01 59 1005.3
20260504230018 57 177 0.0 0.0 0.00 0.01 0.01 58 1005.3
20260504224517 58 189 0.0 1.0 0.00 0.01 0.01 56 1005.1
20260504223017 59 178 0.0 0.0 0.00 0.01 0.01 55 1005.0
20260504221515 60 177 0.0 0.0 0.00 0.01 0.01 54 1005.0
20260504220015 62 157 0.0 3.0 0.00 0.01 0.01 51 1005.0
20260504214513 63 218 0.0 1.0 0.00 0.01 0.01 54 1005.1
20260504213014 64 40 1.0 6.0 0.00 0.01 0.01 44 1005.2
20260504211513 64 38 0.0 3.0 0.00 0.01 0.01 45 1005.2
20260504210016 64 347 2.0 7.0 0.00 0.01 0.01 46 1005.3
20260504204509 64 37 2.0 7.0 0.00 0.01 0.01 46 1005.2
20260504203009 64 17 6.0 13.0 0.00 0.01 0.01 46 1005.1
20260504201506 63 328 4.0 10.0 0.00 0.01 0.01 50 1005.1
20260504200006 62 34 2.0 10.0 0.00 0.01 0.01 55 1005.2
20260504194600 62 22 4.0 17.0 0.00 0.01 0.01 50 1005.4
20260504193058 60 31 8.0 13.0 0.00 0.01 0.01 52 1005.6
20260504191605 59 40 5.0 10.0 0.00 0.01 0.01 57 1005.8
20260504190107 57 49 3.0 11.0 0.00 0.01 0.01 60 1005.9
20260504184552 56 43 1.0 5.0 0.00 0.01 0.01 70 1006.0